Location: Newark
(44.2764°N, 5.2753°E)
Time: 23:52:49
(UTC+00:00)

X-37B - Visible Passes

Search period start: 05 March 2021 00:00
Search period end: 15 March 2021 00:00
Orbit: 383 x 391 km, 45.0° (Epoch: 27 February)

Date Brightness Start Highest point End Pass type
(mag) Time Alt. Az. Time Alt. Az. Time Alt. Az.
10 Mar 3.0 18:40:25 10° SSE 18:41:13 11° SE 18:41:13 11° SE visible
11 Mar 2.0 19:16:19 10° SW 19:18:22 26° S 19:18:22 26° S visible
12 Mar 2.4 18:18:39 10° SSW 18:20:59 19° SSE 18:23:05 11° ESE visible
12 Mar 2.8 19:54:05 10° WSW 19:55:23 22° WSW 19:55:23 22° WSW visible
13 Mar 1.0 18:55:51 10° SW 18:58:58 48° SSE 18:59:58 33° ESE visible
14 Mar 0.9 19:33:56 10° W 19:36:45 66° W 19:36:45 66° W visible
